Chicago Midway, IL

1:47 PM CST on December 11, 2017 (GMT -0600)
Chicago-Midway

Weather History for KMDW - March, 2014

Change the Weather History Date:

Wednesday, March 5, 2014

  Actual Average Record
Temperature  
Mean Temperature 22 °F 35 °F  
Max Temperature 24 °F 42 °F 76 °F (1983)
Min Temperature 20 °F 27 °F 0 °F (1978)
Degree Days  
Heating Degree Days 43 30  
Month to date heating degree days 239 155  
Since 1 July heating degree days 5441 4666  
Cooling Degree Days 0 0  
Month to date cooling degree days 0 0  
Year to date cooling degree days 0 0  
Moisture  
Dew Point 16 °F    
Average Humidity 78    
Maximum Humidity 93    
Minimum Humidity 57    
Precipitation  
Precipitation 0.01 in 0.09 in 0.99 in (1946)
Month to date precipitation T 0.43  
Year to date precipitation 2.49 4.43  
Snow  
Snow 0.00 in - - ()
Snow Depth 3.00 in    
Sea Level Pressure  
Sea Level Pressure 30.40 in    
Wind  
Wind Speed 13 mph (NE)    
Max Wind Speed 17 mph    
Max Gust Speed 17 mph    
Visibility 6 miles    
Events Snow    
T = Trace of Precipitation, MM = Missing Value Source: NWS Daily Summary

Daily Weather History Graph

Daily Weather History Graph

Search for Another Location

Airport or City:

Trip Planner

Search our weather history database for the weather conditions in past years. The results will help you decide how hot, cold, wet, or windy it might be!

Date:

Astronomy

Mar. 05, 2014 Rise Set
Actual Time 6:19 AM CST 5:46 PM CST
Civil Twilight 5:51 AM CST 6:13 PM CST
Nautical Twilight 5:19 AM CST 6:46 PM CST
Astronomical Twilight 4:47 AM CST 7:18 PM CST
Moon 8:40 AM CST (3/5) 10:59 PM CST (3/5)
Length of Visible Light 12h 22m
Length of Day
11h 26m
Waxing Crescent, 23% of the Moon is Illuminated
Mar 5
Waxing Crescent
Mar 8
First Quarter
Mar 16
Full
Mar 23
Last Quarter
Mar 30
New

Hourly Weather History & Observations

Time (CST) Temp. Windchill Dew Point Humidity Pressure Visibility Wind Dir Wind Speed Gust Speed Precip Events Conditions
12:51 AM 23.0 °F 13.1 °F 12.9 °F 65% 30.30 in 10.0 mi ENE 9.2 mph - N/A   Overcast
1:51 AM 23.0 °F 14.7 °F 12.9 °F 65% 30.31 in 10.0 mi ENE 6.9 mph - N/A   Overcast
2:29 AM 23.0 °F 11.7 °F 14.0 °F 68% 30.27 in 10.0 mi NNE 11.5 mph - 0.00 in Snow Light Snow
2:51 AM 21.9 °F 11.0 °F 17.1 °F 82% 30.33 in 6.0 mi North 10.4 mph - 0.00 in Snow Light Snow
3:12 AM 21.0 °F 9.3 °F 16.0 °F 81% 30.29 in 5.0 mi North 11.5 mph - 0.00 in Snow Light Snow
3:37 AM 21.0 °F 9.3 °F 16.0 °F 81% 30.29 in 1.5 mi NNE 11.5 mph - 0.00 in Snow Light Snow
3:51 AM 21.0 °F 9.3 °F 17.1 °F 85% 30.34 in 1.5 mi NNE 11.5 mph - 0.00 in Snow Light Snow
4:51 AM 21.0 °F 10.6 °F 17.1 °F 85% 30.35 in 1.2 mi NNE 9.2 mph - 0.00 in Snow Light Snow
5:35 AM 21.0 °F 8.1 °F 18.0 °F 88% 30.32 in 1.0 mi NNE 13.8 mph - 0.00 in Snow Light Snow
5:46 AM 19.4 °F 7.9 °F 17.6 °F 93% 30.33 in 0.8 mi NNE 10.4 mph - 0.00 in Snow Light Snow
5:51 AM 19.9 °F 7.9 °F 18.0 °F 92% 30.38 in 0.8 mi NNE 11.5 mph - 0.00 in Snow Light Snow
6:20 AM 21.0 °F 9.3 °F 18.0 °F 88% 30.34 in 0.8 mi NE 11.5 mph - 0.01 in Snow Light Snow
6:39 AM 19.9 °F 9.3 °F 18.0 °F 92% 30.35 in 0.8 mi ENE 9.2 mph - 0.01 in Snow Light Snow
6:48 AM 21.2 °F 10.9 °F 17.6 °F 86% 30.35 in 1.0 mi ENE 9.2 mph - 0.01 in Snow Light Snow
6:51 AM 21.0 °F 10.6 °F 18.0 °F 88% 30.40 in 1.8 mi ENE 9.2 mph - 0.01 in Snow Light Snow
7:09 AM 19.9 °F 7.3 °F 17.1 °F 89% 30.36 in 2.0 mi ENE 12.7 mph - 0.00 in Snow Light Snow
7:21 AM 19.9 °F 7.9 °F 17.1 °F 89% 30.36 in 0.8 mi ENE 11.5 mph - 0.00 in Snow Light Snow
7:51 AM 21.0 °F 9.3 °F 17.1 °F 85% 30.43 in 0.8 mi ENE 11.5 mph - 0.00 in Snow Light Snow
8:06 AM 19.9 °F 6.7 °F 18.0 °F 92% 30.39 in 0.8 mi NE 13.8 mph - 0.00 in Snow Light Snow
8:20 AM 21.0 °F 9.3 °F 17.1 °F 85% 30.39 in 0.8 mi ENE 11.5 mph - 0.00 in Snow Light Snow
8:51 AM 21.0 °F 7.6 °F 17.1 °F 85% 30.44 in 0.8 mi East 15.0 mph - 0.00 in Snow Light Snow
9:18 AM 21.0 °F 6.6 °F 17.1 °F 85% 30.39 in 2.0 mi ENE 17.3 mph - 0.01 in Snow Light Snow
9:33 AM 21.0 °F 6.6 °F 16.0 °F 81% 30.40 in 1.8 mi ENE 17.3 mph - 0.01 in Snow Light Snow
9:48 AM 21.2 °F 6.8 °F 15.8 °F 80% 30.40 in 3.0 mi ENE 17.3 mph - 0.01 in Snow Light Snow
9:51 AM 21.0 °F 6.6 °F 16.0 °F 81% 30.45 in 4.0 mi ENE 17.3 mph - 0.01 in Snow Light Snow
10:51 AM 21.9 °F 9.2 °F 16.0 °F 78% 30.46 in 4.0 mi East 13.8 mph - 0.00 in Snow Light Snow
11:42 AM 21.9 °F 8.2 °F 15.1 °F 75% 30.41 in 5.0 mi ENE 16.1 mph - 0.00 in Snow Light Snow
11:51 AM 21.9 °F 7.8 °F 15.1 °F 75% 30.46 in 5.0 mi ENE 17.3 mph - 0.00 in Snow Light Snow
12:42 PM 23.0 °F 9.2 °F 16.0 °F 74% 30.40 in 4.0 mi ENE 17.3 mph - 0.00 in Snow Light Snow
12:51 PM 23.0 °F 9.2 °F 15.1 °F 72% 30.45 in 8.0 mi ENE 17.3 mph - 0.00 in Snow Light Snow
1:46 PM 23.0 °F 9.2 °F 14.0 °F 68% 30.40 in 10.0 mi ENE 17.3 mph - 0.00 in   Overcast
1:51 PM 23.0 °F 9.2 °F 14.0 °F 68% 30.45 in 10.0 mi ENE 17.3 mph - 0.00 in   Overcast
2:51 PM 23.0 °F 9.2 °F 15.1 °F 72% 30.45 in 10.0 mi NE 17.3 mph - N/A   Overcast
3:36 PM 23.0 °F 9.2 °F 16.0 °F 74% 30.41 in 10.0 mi NE 17.3 mph - N/A   Mostly Cloudy
3:51 PM 23.0 °F 10.6 °F 16.0 °F 74% 30.45 in 10.0 mi NE 13.8 mph - N/A   Mostly Cloudy
4:13 PM 23.0 °F 10.6 °F 15.1 °F 72% 30.41 in 10.0 mi NNE 13.8 mph - N/A   Mostly Cloudy
4:51 PM 23.0 °F 11.7 °F 16.0 °F 74% 30.46 in 10.0 mi NE 11.5 mph - N/A   Mostly Cloudy
5:51 PM 23.0 °F 9.6 °F 14.0 °F 68% 30.46 in 10.0 mi NE 16.1 mph - N/A   Mostly Cloudy
6:51 PM 23.0 °F 10.1 °F 15.1 °F 72% 30.47 in 10.0 mi NE 15.0 mph - N/A   Mostly Cloudy
7:51 PM 24.1 °F 12.0 °F 15.1 °F 69% 30.47 in 10.0 mi ENE 13.8 mph - N/A   Mostly Cloudy
8:51 PM 24.1 °F 12.5 °F 15.1 °F 69% 30.48 in 10.0 mi ENE 12.7 mph - N/A   Overcast
9:51 PM 21.9 °F 10.4 °F 14.0 °F 72% 30.48 in 10.0 mi ENE 11.5 mph - N/A   Overcast
10:51 PM 21.9 °F 11.0 °F 12.9 °F 68% 30.47 in 10.0 mi East 10.4 mph - N/A   Overcast
11:51 PM 21.0 °F 9.9 °F 12.9 °F 71% 30.46 in 10.0 mi East 10.4 mph - N/A   Overcast